Flag for Estonia Weather past 2 weeks in Tallinn, Estonia

Now
63 °F

Sprinkles. Scattered clouds.


Feels Like: 63 °F
Forecast: 56 / 67 °F
Wind: 15 mph from West

Location: Tallinn

Current Time: Aug 30, 2015 at 11:25:16 AM

Latest Report: Aug 30, 2015 at 10:50 AM


Visibility: N/A

Pressure: 30.04 "Hg

Humidity: 83%

Dew point: 57 °F

Location of TallinnLocation

Historic Weather in Tallinn — Graph

°F

Tallinn temperature yesterday

Maximum temperature yesterday: 68 °F (at 1:50 PM)
Minimum temperature yesterday: 57 °F (at 12:50 AM)
Average temperature yesterday: 61 °F

Past Weeks' High & Low Weather Summary

 TemperatureHumidityPressure
High82 °F (Aug 25, 2:50 PM)100% (Aug 16, 3:50 AM)30.45 "Hg (Aug 16, 3:50 AM)
Low43 °F (Aug 17, 5:50 AM)33% (Aug 20, 1:50 PM)29.65 "Hg (Aug 28, 10:50 AM)
Average62 °F75%30.16 "Hg
* Reported Aug 15 10:20 AM — Aug 30 10:20 AM, Tallinn, Weather by CustomWeather, © 2015

Note: Actual official high and low records may vary slightly from our data, if they occured in-between our weather recording intervals... More about our weather records

Advertising

Tallinn weather history for previous 24 hours

 ConditionsComfort  
Time TempWeatherWind HumidityBarometerVisibility
10:20 AM
Sun, Aug 30
63 °FScattered showers. Scattered clouds.10 mph88%30.04 "HgN/A
9:50 AM63 °FScattered showers. Scattered clouds.10 mph94%30.04 "HgN/A
9:20 AM61 °FSprinkles. Scattered clouds.12 mph94%30.04 "HgN/A
8:50 AM61 °FPassing clouds.8 mph94%30.04 "HgN/A
8:20 AM59 °FPassing clouds.8 mph100%30.04 "HgN/A
7:50 AM57 °FSunny.8 mph100%30.04 "Hg10 mi
7:20 AM57 °FSunny.5 mph94%30.04 "Hg10 mi
6:50 AM57 °FLight fog.No wind94%30.04 "HgN/A
6:20 AM55 °FSleet. Overcast.No wind100%30.04 "HgN/A
5:50 AM55 °FLight fog.5 mph100%30.04 "Hg4 mi
5:20 AM55 °FFog.6 mph100%30.04 "HgN/A
4:50 AM55 °FPassing clouds.7 mph100%30.04 "HgN/A
4:20 AM55 °FClear.7 mph100%30.04 "Hg10 mi
3:50 AM55 °FPassing clouds.7 mph100%30.04 "HgN/A
3:20 AM55 °FPassing clouds.8 mph100%30.04 "HgN/A
2:50 AM55 °FClear.8 mph100%30.04 "Hg10 mi
2:20 AM57 °FPassing clouds.8 mph94%30.04 "HgN/A
1:50 AM57 °FClear.8 mph94%30.04 "Hg10 mi
1:20 AM57 °FClear.8 mph94%30.04 "Hg10 mi
12:50 AM57 °FClear.7 mph94%30.04 "Hg10 mi
12:20 AM57 °FClear.7 mph94%30.01 "Hg10 mi
11:50 PM
Sat, Aug 29
57 °FPassing clouds.9 mph94%30.01 "HgN/A
11:20 PM57 °FPassing clouds.8 mph94%30.01 "HgN/A
10:50 PM59 °FPassing clouds.8 mph88%30.01 "HgN/A
10:20 PM59 °FPassing clouds.8 mph88%30.01 "HgN/A
9:50 PM59 °FPassing clouds.12 mph88%30.01 "HgN/A
9:20 PM61 °FPassing clouds.12 mph83%30.01 "HgN/A
8:50 PM61 °FScattered clouds.12 mph83%30.01 "HgN/A
8:20 PM61 °FScattered clouds.15 mph83%30.01 "HgN/A
7:50 PM63 °FPartly sunny.15 mph77%30.01 "HgN/A
7:20 PM63 °FPartly sunny.18 mph77%29.98 "HgN/A
6:50 PM64 °FPartly sunny.21 mph73%29.98 "HgN/A
6:20 PM63 °FPartly sunny.21 mph77%29.98 "HgN/A
5:50 PM64 °FPartly sunny.22 mph73%29.98 "HgN/A
5:20 PM66 °FPartly sunny.22 mph68%29.95 "HgN/A
4:50 PM66 °FScattered clouds.25 mph68%29.98 "HgN/A
4:20 PM66 °FPartly sunny.22 mph68%29.95 "HgN/A
3:50 PM66 °FScattered clouds.25 mph68%29.95 "HgN/A
3:20 PM66 °FScattered clouds.24 mph68%29.95 "HgN/A
2:50 PM66 °FScattered clouds.26 mph68%29.95 "HgN/A
2:20 PM66 °FPartly sunny.25 mph68%29.92 "HgN/A
1:50 PM68 °FPartly sunny.28 mph64%29.92 "HgN/A
12:50 PM66 °FScattered clouds.22 mph68%29.89 "HgN/A
12:20 PM64 °FScattered clouds.23 mph78%29.89 "HgN/A
11:50 AM66 °FBroken clouds.22 mph73%29.89 "HgN/A
Weather by CustomWeather, © 2015

See weather overviewHow to use our weather pages